Location: Unspecified
(0.0000°N, 0.0000°E)
Time: 20:07:30
(UTC+00:00)

Vanguard 1 Rocket - Pass Details

Date: 25 March 2018
Orbit: 649 x 4227 km, 34.3° (Epoch: 16 November)

Event Time Altitude Azimuth Distance (km) Brightness Sun altitude
Rises 00:44:24 0° 289° (WNW) 6,734 - -80.3°
Reaches altitude 10° 00:48:30 10° 284° (WNW) 6,107 - -79.3°
Maximum altitude 01:09:15 51° 213° (SSW) 4,778 - -74.1°
Exits shadow 01:23:07 32° 159° (SSE) 5,715 11.2 -70.7°
Drops below altitude 10° 01:33:59 10° 142° (SE) 6,993 12.0 -68.0°
Sets 01:39:17 0° 136° (SE) 7,700 12.3 -66.7°
